Time[GMT],air_temperature[C](-3m),wind_speed[m/s](-4m),wind_gust[m/s](-4m),visibility[m](-3m),wind_direction[degrees_true](-4m),wind_min[m/s](-4m)
2001-07-12 12:04,20.7,0.1,,,211.14,
2001-07-12 13:04,21.4,0.1,,,21.62,
2001-07-12 20:04,20.4,4.5,,,53.64,
2001-07-12 21:04,21.5,0.6,,,224.64,
2001-07-12 22:04,22.0,2.3,,,159.84,
2001-07-12 23:04,22.5,1.5,,,154.54,
2001-07-13 00:04,21.4,5.2,,,161.04,
2001-07-13 01:04,20.7,1.7,,,161.24,
2001-07-13 02:04,20.4,3.0,,,161.74,
2001-07-13 03:04,19.9,2.6,,,163.44,
2001-07-13 04:04,19.5,3.1,,,165.04,
2001-07-13 05:04,19.1,1.1,,,158.44,
2001-07-13 06:04,18.8,1.0,,,162.84,
2001-07-13 07:04,18.4,1.5,,,161.64,
2001-07-13 08:04,18.1,1.3,,,165.84,
2001-07-13 09:04,17.9,0.6,,,167.24,
2001-07-13 10:04,18.1,0.4,,,163.14,
2001-07-13 11:04,18.2,0.2,,,163.54,
2001-07-13 12:04,19.9,1.7,,,168.54,
2001-07-13 13:04,20.0,2.5,,,170.04,
2001-07-13 14:04,20.3,1.8,,,170.14,
2001-07-13 15:04,20.7,1.3,,,169.24,
2001-07-13 16:04,21.4,1.0,,,168.94,
2001-07-13 17:04,22.2,1.7,,,168.04,
2001-07-13 18:04,20.7,2.0,,,171.14,
2001-07-13 19:04,20.4,2.1,,,170.34,
2001-07-13 20:04,20.4,0.9,,,170.04,
2001-07-13 21:04,20.5,1.0,,,170.14,
2001-07-13 22:04,20.5,0.6,,,170.44,
2001-07-13 23:04,19.9,2.2,,,170.64,
2001-07-14 00:04,19.6,0.7,,,169.74,
2001-07-14 01:04,19.3,0.1,,,,
2001-07-14 02:04,18.3,0.1,,,,
2001-07-14 03:04,18.3,0.4,,,168.44,
2001-07-14 04:04,19.8,1.1,,,169.34,
2001-07-14 05:04,20.0,0.6,,,165.84,
2001-07-14 06:04,19.5,0.1,,,,
2001-07-14 07:04,19.1,1.2,,,170.14,
2001-07-14 08:04,19.2,1.2,,,169.64,
2001-07-14 09:04,18.8,1.7,,,170.44,
2001-07-14 10:04,18.7,2.6,,,165.04,
2001-07-14 11:04,19.4,1.8,,,170.34,
2001-07-14 12:04,20.7,1.2,,,169.84,
2001-07-14 13:04,20.8,2.3,,,165.34,
2001-07-14 14:04,21.8,0.1,,,167.54,
2001-07-14 15:04,22.9,0.1,,,165.44,
2001-07-14 16:04,20.5,2.0,,,175.14,
2001-07-14 17:04,21.1,2.0,,,176.24,
2001-07-14 18:04,20.9,1.6,,,177.94,
2001-07-14 19:04,21.3,1.2,,,178.54,
2001-07-14 20:04,23.4,0.3,,,179.84,
2001-07-14 21:04,23.0,0.2,,,190.64,
2001-07-14 22:04,22.6,0.4,,,198.74,
2001-07-14 23:04,24.0,0.1,,,141.64,
2001-07-15 00:04,22.2,0.1,,,111.54,
2001-07-15 01:04,20.8,0.5,,,180.14,
2001-07-15 02:04,20.4,1.1,,,164.94,
2001-07-15 03:04,19.2,1.0,,,189.14,
2001-07-15 04:04,19.3,0.4,,,184.64,
2001-07-15 05:04,20.6,1.0,,,203.44,
2001-07-15 06:04,20.1,1.8,,,312.44,
2001-07-15 07:04,19.3,0.1,,,,
2001-07-15 08:04,18.9,0.6,,,309.54,
2001-07-15 09:04,18.7,0.5,,,347.58,
2001-07-15 10:04,18.6,0.7,,,350.68,
2001-07-15 11:04,19.8,1.3,,,295.94,
2001-07-15 12:04,21.3,0.1,,,,
2001-07-15 13:04,22.2,0.1,,,248.24,
2001-07-15 14:04,23.2,0.2,,,113.64,
2001-07-15 15:04,23.2,0.7,,,305.64,
2001-07-15 16:04,23.3,1.2,,,244.54,
2001-07-15 17:04,21.3,3.4,,,219.94,
2001-07-15 18:04,21.7,2.8,,,206.04,
2001-07-15 19:04,22.4,1.4,,,233.64,
2001-07-15 20:04,21.6,2.3,,,198.34,
2001-07-16 08:04,18.5,0.5,,,188.14,
2001-07-16 14:04,15.5,1.0,,,167.24,
2001-07-16 15:04,15.7,2.7,,,221.24,
2001-07-16 16:04,15.2,3.2,,,160.04,
2001-07-16 17:04,15.3,2.8,,,146.94,
2001-07-16 18:04,15.5,3.3,,,174.34,
2001-07-16 19:04,15.5,2.0,,,206.54,
2001-07-16 20:04,16.0,1.6,,,207.64,
2001-07-16 21:04,15.4,0.6,,,308.14,
2001-07-16 22:04,15.1,3.8,,,276.44,
2001-07-16 23:04,14.9,3.3,,,297.84,
2001-07-17 00:04,14.4,1.2,,,298.54,
2001-07-17 01:04,14.0,1.1,,,326.44,
2001-07-17 02:04,13.7,0.6,,,266.64,
2001-07-17 03:04,13.2,1.0,,,153.44,
2001-07-17 04:04,12.7,1.4,,,122.84,
2001-07-17 05:04,12.4,0.9,,,120.34,
2001-07-17 06:04,12.4,2.7,,,162.14,
2001-07-17 07:04,13.0,2.8,,,144.94,
2001-07-17 08:04,12.7,2.6,,,115.84,
2001-07-17 09:04,13.1,2.5,,,142.84,
2001-07-17 10:04,14.0,3.0,,,136.04,
2001-07-17 11:04,14.2,4.4,,,149.34,
2001-07-17 12:04,14.5,3.6,,,171.34,
2001-07-17 13:04,14.7,3.0,,,129.64,
2001-07-17 14:04,14.8,2.3,,,127.34,
2001-07-17 15:04,15.1,2.0,,,144.34,
2001-07-17 16:04,15.1,2.9,,,133.04,
2001-07-17 17:04,15.1,4.1,,,107.14,
2001-07-17 18:00,15.1,3.8,,,101.04,
2001-07-17 19:00,15.1,3.8,,,130.14,
2001-07-17 20:00,15.0,4.7,,,120.44,
2001-07-17 21:00,14.9,5.3,,,94.64,
2001-07-17 22:00,14.6,5.4,,,108.14,
2001-07-17 23:00,14.7,5.0,,,61.64,
2001-07-18 00:00,14.6,5.1,,,45.94,
2001-07-18 01:00,14.5,6.1,,,16.54,
2001-07-18 02:00,14.6,4.4,,,29.14,
2001-07-18 03:00,14.4,6.8,,,351.14,
2001-07-18 05:00,13.9,5.3,,,333.44,
2001-07-18 06:00,14.0,5.5,,,343.84,
2001-07-18 07:00,13.5,4.7,,,342.84,
2001-07-18 08:00,13.4,4.2,,,344.24,
2001-07-18 09:00,13.5,5.4,,,325.24,
2001-07-18 10:00,13.7,4.1,,,310.94,
2001-07-18 11:00,14.0,3.7,,,326.24,
2001-07-18 12:00,14.6,4.2,,,317.04,
2001-07-18 13:00,14.4,2.5,,,316.94,
2001-07-18 14:00,14.6,4.8,,,326.44,
2001-07-18 15:00,15.1,3.3,,,349.54,
2001-07-18 16:00,14.7,2.8,,,3.34,
2001-07-18 17:00,15.1,2.1,,,320.84,
2001-07-18 18:00,15.6,1.6,,,339.14,
2001-07-18 19:00,16.1,1.2,,,312.34,
2001-07-18 20:00,16.3,1.3,,,305.44,
2001-07-18 21:00,16.6,1.3,,,310.14,
2001-07-18 22:00,16.5,1.7,,,287.94,
2001-07-18 23:00,16.5,1.8,,,308.64,
2001-07-19 00:00,15.7,2.2,,,309.74,
2001-07-19 01:00,15.3,1.7,,,328.34,
2001-07-19 02:00,15.2,2.3,,,331.44,
2001-07-19 03:00,15.1,1.0,,,330.14,
2001-07-19 04:00,15.1,2.2,,,326.94,
2001-07-19 05:00,14.9,1.0,,,296.44,
2001-07-19 06:00,14.8,0.8,,,332.04,
2001-07-19 07:00,14.8,1.3,,,5.14,
2001-07-19 08:00,14.8,2.6,,,10.24,
2001-07-19 09:00,15.1,2.7,,,38.04,
2001-07-19 10:00,15.7,2.1,,,32.64,
2001-07-19 11:00,16.0,2.5,,,43.94,
2001-07-19 12:00,15.6,3.5,,,40.54,
2001-07-19 13:00,15.9,2.5,,,45.74,
2001-07-19 14:00,15.7,4.2,,,67.94,
2001-07-19 15:00,14.8,3.6,,,13.44,
2001-07-19 16:00,15.8,3.7,,,22.84,
2001-07-19 17:00,16.4,1.5,,,89.44,
2001-07-19 18:00,16.9,1.0,,,56.84,
2001-07-19 19:00,17.7,0.1,,,90.44,
2001-07-19 20:00,19.2,0.1,,,35.84,
2001-07-19 21:00,18.8,0.9,,,281.64,
2001-07-19 22:00,19.0,0.5,,,204.14,
2001-07-19 23:00,18.4,1.7,,,189.64,
2001-07-20 00:00,16.7,2.0,,,202.44,
2001-07-20 01:00,16.3,0.9,,,220.34,
2001-07-20 02:00,15.9,0.6,,,226.74,
2001-07-20 03:00,15.7,0.3,,,235.44,
2001-07-20 04:00,15.6,0.1,,,279.54,
2001-07-20 05:00,15.7,1.0,,,350.94,
2001-07-20 06:00,15.6,1.0,,,149.04,
2001-07-20 07:00,15.6,0.1,,,165.74,
2001-07-20 08:00,15.4,0.1,,,198.24,
2001-07-20 09:00,15.5,0.6,,,331.24,
2001-07-20 10:00,15.9,1.1,,,310.44,
2001-07-20 11:00,16.3,0.1,,,255.84,
2001-07-20 12:00,16.5,2.4,,,149.04,
2001-07-20 13:00,16.4,2.1,,,195.14,
2001-07-20 14:00,17.5,0.5,,,240.84,
2001-07-20 15:00,17.2,1.9,,,156.04,
2001-07-20 16:00,18.1,0.5,,,203.34,
2001-07-20 17:00,18.2,1.5,,,213.14,
2001-07-20 18:00,18.3,2.3,,,220.34,
2001-07-20 19:00,18.1,3.0,,,222.94,
2001-07-20 20:00,18.1,3.4,,,230.24,
2001-07-20 21:00,18.2,3.9,,,238.34,
2001-07-20 22:00,18.2,4.5,,,240.64,
2001-07-20 23:00,18.0,4.7,,,234.34,
2001-07-21 00:00,17.3,3.8,,,247.94,
2001-07-21 01:00,17.1,4.4,,,229.14,
2001-07-21 02:00,16.9,4.0,,,221.54,
2001-07-21 03:00,17.1,3.3,,,246.94,
2001-07-21 04:00,17.0,4.8,,,247.84,
2001-07-21 06:00,16.9,4.7,,,254.24,
2001-07-21 07:00,16.8,4.8,,,281.14,
2001-07-21 08:00,16.8,3.0,,,250.54,
2001-07-21 09:00,16.8,2.8,,,254.44,
2001-07-21 10:00,17.2,3.3,,,273.04,
2001-07-21 11:00,17.7,4.1,,,245.94,
2001-07-21 12:00,17.6,3.3,,,256.04,
2001-07-21 13:00,17.5,4.5,,,251.34,
2001-07-21 14:00,17.5,4.0,,,240.64,
2001-07-21 15:00,17.8,4.3,,,241.44,
2001-07-21 16:00,17.9,4.1,,,221.34,
2001-07-21 17:00,17.8,3.6,,,226.34,
2001-07-21 18:00,17.9,4.0,,,222.94,
2001-07-21 19:00,18.1,4.1,,,232.54,
2001-07-21 20:00,18.2,5.6,,,213.54,
2001-07-21 21:00,18.4,5.8,,,220.04,
2001-07-21 22:00,18.6,8.2,,,215.74,
2001-07-21 23:00,18.3,7.0,,,227.74,
2001-07-22 00:00,18.0,6.7,,,215.34,
2001-07-22 01:00,17.9,7.4,,,215.74,
2001-07-22 02:00,17.6,7.5,,,213.74,
2001-07-22 03:00,17.5,6.4,,,218.94,
2001-07-22 04:00,17.1,9.1,,,203.34,
2001-07-22 05:00,17.0,6.9,,,209.94,
2001-07-22 06:00,16.9,7.5,,,201.14,
2001-07-22 07:00,16.9,5.9,,,216.34,
2001-07-22 08:00,16.9,6.0,,,214.04,
2001-07-22 10:00,17.0,7.2,,,208.94,
2001-07-22 11:00,17.2,8.3,,,211.64,
2001-07-22 12:00,17.3,7.5,,,224.94,
2001-07-22 13:00,17.3,8.2,,,215.44,
2001-07-22 14:00,17.3,7.8,,,226.14,
2001-07-22 15:00,17.4,6.9,,,215.74,
2001-07-22 16:00,17.3,7.8,,,212.84,
2001-07-22 17:00,17.6,7.9,,,204.74,
2001-07-22 18:00,17.6,9.1,,,211.34,
2001-07-22 19:00,17.7,8.0,,,204.94,
2001-07-22 20:00,17.8,9.4,,,210.94,
2001-07-22 21:00,18.0,7.9,,,219.54,
2001-07-22 22:00,18.0,8.8,,,214.84,
2001-07-22 23:00,17.9,8.9,,,199.84,
2001-07-23 00:00,17.6,9.5,,,199.34,
2001-07-23 01:00,17.4,8.9,,,201.34,
2001-07-23 02:00,17.3,10.1,,,205.44,
2001-07-23 03:00,17.8,8.9,,,211.54,
2001-07-23 05:00,17.1,9.8,,,210.44,
2001-07-23 06:00,17.0,10.3,,,207.14,
2001-07-23 07:00,16.9,8.6,,,217.94,
2001-07-23 08:00,16.7,8.1,,,215.34,
2001-07-23 09:00,16.6,6.6,,,224.04,
2001-07-23 10:00,16.6,7.3,,,212.94,
2001-07-23 11:00,16.9,7.6,,,218.14,
2001-07-23 12:00,17.0,7.5,,,219.84,
2001-07-23 13:00,17.0,6.8,,,216.84,
2001-07-23 14:00,17.1,7.2,,,198.24,
2001-07-23 15:00,17.3,7.5,,,209.54,
2001-07-23 16:00,17.5,7.9,,,219.64,
2001-07-23 17:00,17.4,7.5,,,228.64,
2001-07-23 18:00,17.3,6.4,,,223.24,
2001-07-23 19:00,17.3,7.0,,,220.34,
2001-07-23 20:00,16.8,6.4,,,209.24,
2001-07-23 21:00,17.5,7.4,,,202.44,
2001-07-23 22:00,17.6,7.2,,,207.84,
2001-07-23 23:00,17.5,6.4,,,204.84,
2001-07-24 00:00,17.3,6.8,,,200.24,
2001-07-24 02:00,17.5,7.3,,,203.34,
2001-07-24 03:00,17.1,7.0,,,201.74,
2001-07-24 04:00,17.4,7.9,,,213.24,
2001-07-24 05:00,17.7,8.1,,,212.94,
2001-07-24 06:00,17.3,8.4,,,225.64,
2001-07-24 07:00,17.4,8.8,,,218.94,
2001-07-24 08:00,17.6,7.6,,,224.84,
2001-07-24 09:00,17.5,8.5,,,208.04,
2001-07-24 10:00,17.4,7.1,,,222.64,
2001-07-24 11:00,17.6,6.9,,,225.94,
2001-07-24 12:00,17.8,8.1,,,221.24,
2001-07-24 13:00,17.8,7.7,,,223.44,
2001-07-24 14:00,17.9,8.1,,,205.44,
2001-07-24 15:00,18.1,10.0,,,221.54,
2001-07-24 16:00,17.9,8.9,,,218.54,
2001-07-24 17:00,18.0,9.5,,,220.84,
2001-07-24 18:00,18.0,9.2,,,220.64,
2001-07-24 20:00,18.1,9.4,,,203.34,
2001-07-24 21:00,18.3,10.0,,,209.24,
2001-07-24 23:00,18.4,11.7,,,223.64,
2001-07-25 00:00,18.0,9.2,,,214.64,
2001-07-25 01:00,18.0,9.6,,,209.74,
2001-07-25 02:00,18.2,9.1,,,221.44,
2001-07-25 03:00,18.0,12.8,,,218.54,
2001-07-25 04:00,17.8,10.4,,,225.14,
2001-07-25 05:00,18.1,12.4,,,232.24,
2001-07-25 06:00,17.9,9.0,,,234.64,
2001-07-25 07:00,17.5,7.1,,,239.94,
2001-07-25 08:00,17.3,6.6,,,244.14,
2001-07-25 09:00,16.4,5.6,,,264.04,
2001-07-25 10:00,16.8,4.9,,,262.54,
2001-07-25 11:00,17.4,4.5,,,277.14,
2001-07-25 12:00,17.2,4.3,,,268.44,
2001-07-25 13:00,16.8,4.4,,,254.14,
2001-07-25 14:00,17.2,3.8,,,318.84,
2001-07-25 15:00,17.2,2.6,,,267.24,
2001-07-25 16:00,17.4,1.9,,,258.94,
2001-07-25 17:00,17.8,4.2,,,218.54,
2001-07-25 18:00,17.8,4.4,,,240.24,
2001-07-25 19:00,18.0,3.5,,,237.84,
2001-07-25 20:00,18.2,4.7,,,247.74,
2001-07-25 21:00,18.5,2.6,,,256.84,
2001-07-25 22:00,18.5,2.0,,,233.24,
2001-07-25 23:00,18.0,2.1,,,221.54,
2001-07-26 00:00,17.9,3.1,,,200.24,
2001-07-26 01:00,17.6,2.5,,,258.44,
2001-07-26 02:00,18.1,0.9,,,0.14,
2001-07-26 03:00,17.8,1.6,,,38.24,
2001-07-26 04:00,17.7,1.6,,,44.64,
2001-07-26 05:00,18.5,1.6,,,24.94,
2001-07-26 06:00,18.1,1.9,,,27.84,
2001-07-26 07:00,17.8,1.6,,,7.44,
2001-07-26 08:00,18.1,2.6,,,13.24,
2001-07-26 09:00,17.4,3.6,,,7.54,
2001-07-26 10:00,17.4,4.6,,,5.64,
2001-07-26 11:00,17.2,8.4,,,5.14,
2001-07-26 12:00,15.7,8.8,,,28.54,
2001-07-26 13:00,14.3,13.1,,,29.34,
2001-07-26 14:00,13.7,8.7,,,26.24,
2001-07-26 15:00,13.6,7.3,,,35.54,
2001-07-26 16:00,13.2,4.9,,,10.74,
2001-07-26 17:00,13.2,3.3,,,63.04,
2001-07-26 18:00,13.5,3.6,,,34.74,
2001-07-26 19:00,14.2,2.5,,,344.84,
2001-07-26 20:00,14.6,2.0,,,322.74,
2001-07-26 21:00,14.6,3.3,,,293.84,
2001-07-26 22:00,14.8,3.2,,,283.84,
2001-07-26 23:00,14.9,3.7,,,279.34,
2001-07-27 00:00,14.4,4.7,,,246.94,
2001-07-27 01:00,14.3,4.3,,,242.24,
2001-07-27 02:00,14.6,5.7,,,279.74,
2001-07-27 03:00,14.9,6.3,,,280.24,
2001-07-27 04:00,15.7,7.1,,,329.24,
2001-07-27 06:00,15.2,8.4,,,338.84,
2001-07-27 07:00,15.0,8.6,,,350.84,
2001-07-27 08:00,14.6,9.2,,,347.84,
2001-07-27 09:00,14.4,5.8,,,342.24,
2001-07-27 10:00,14.5,6.9,,,337.04,
2001-07-27 11:00,14.3,7.9,,,348.54,
2001-07-27 12:00,14.2,8.2,,,335.74,
2001-07-27 13:00,14.1,7.3,,,340.44,
2001-07-27 14:00,14.0,7.0,,,336.34,
2001-07-27 15:00,14.2,7.0,,,332.44,
2001-07-27 16:00,14.6,5.8,,,335.74,
2001-07-27 17:00,14.9,5.0,,,321.04,
2001-07-27 18:00,15.4,4.6,,,291.24,
2001-07-27 19:00,15.7,4.4,,,292.34,
2001-07-27 20:00,15.6,5.6,,,273.44,
2001-07-27 21:00,15.3,6.4,,,264.94,
2001-07-27 22:00,15.4,7.0,,,257.34,
2001-07-27 23:00,15.4,5.5,,,253.14,
2001-07-28 00:00,15.2,4.7,,,265.64,
2001-07-28 01:00,15.4,5.9,,,262.64,
2001-07-28 02:00,15.5,2.5,,,283.44,
2001-07-28 04:00,15.2,1.7,,,287.44,
2001-07-28 05:00,15.2,1.2,,,299.94,
2001-07-28 06:00,15.1,1.9,,,294.94,
2001-07-28 07:00,15.1,1.9,,,6.44,
2001-07-28 08:00,15.1,1.5,,,350.64,
2001-07-28 09:00,14.9,3.8,,,349.34,
2001-07-28 10:00,14.9,3.3,,,0.84,
2001-07-28 11:00,15.5,3.2,,,2.44,
2001-07-28 12:00,15.7,2.9,,,23.84,
2001-07-28 13:00,16.0,2.1,,,357.34,
2001-07-28 14:00,15.5,2.7,,,323.84,
2001-07-28 15:00,15.6,3.0,,,298.64,
2001-07-28 16:00,15.6,2.8,,,276.94,
2001-07-28 18:00,15.8,2.8,,,254.94,
2001-07-28 19:00,16.0,4.7,,,241.34,
2001-07-28 20:00,16.3,4.1,,,237.34,
2001-07-28 21:00,16.1,4.4,,,237.84,
2001-07-28 22:00,15.9,4.7,,,234.34,
2001-07-28 23:00,15.7,4.4,,,236.64,
2001-07-29 00:00,15.1,4.1,,,241.34,
2001-07-29 01:00,15.0,3.7,,,224.64,
2001-07-29 02:00,14.9,4.1,,,253.34,
2001-07-29 03:00,15.0,4.2,,,241.14,
2001-07-29 04:00,15.1,3.7,,,244.54,
2001-07-29 05:00,15.3,3.3,,,258.54,
2001-07-29 06:00,15.1,4.6,,,249.94,
2001-07-29 07:00,15.0,3.6,,,252.54,
2001-07-29 08:00,14.9,5.2,,,252.84,
2001-07-29 09:00,14.6,3.2,,,253.24,
2001-07-29 10:00,14.7,3.5,,,237.04,
2001-07-29 11:00,15.2,3.2,,,244.24,
2001-07-29 12:00,15.1,3.2,,,232.54,
2001-07-29 13:00,15.5,3.3,,,223.94,
2001-07-29 14:00,15.7,3.5,,,236.24,
2001-07-29 17:00,16.1,3.7,,,248.24,
2001-07-29 18:00,16.3,4.7,,,231.44,
2001-07-29 19:00,16.3,4.7,,,231.34,
2001-07-29 20:00,16.3,4.5,,,230.24,
2001-07-29 21:00,16.4,4.5,,,229.34,
2001-07-29 22:00,16.4,4.2,,,228.54,
2001-07-29 23:00,16.2,4.6,,,220.94,
2001-07-30 00:00,15.8,4.4,,,218.34,
2001-07-30 01:00,15.6,3.8,,,213.54,
2001-07-30 02:00,15.4,3.4,,,212.04,
2001-07-30 03:00,15.5,3.8,,,210.74,
2001-07-30 04:00,15.5,3.4,,,201.94,
2001-07-30 05:00,15.5,4.2,,,207.64,
2001-07-30 06:00,15.5,4.0,,,222.54,
2001-07-30 07:00,15.4,3.3,,,217.84,
2001-07-30 08:00,15.2,2.0,,,234.94,
2001-07-30 09:00,15.0,1.9,,,208.24,
2001-07-30 10:00,15.3,2.3,,,192.54,
2001-07-30 11:00,15.5,3.3,,,189.74,
2001-07-30 12:00,15.7,3.2,,,179.94,
2001-07-30 13:00,15.9,3.1,,,189.44,
2001-07-30 14:00,15.9,3.4,,,190.44,
2001-07-30 15:00,16.3,2.7,,,195.84,
2001-07-30 16:00,16.7,1.8,,,207.24,
2001-07-30 17:00,16.8,2.2,,,206.94,
2001-07-30 18:00,17.1,2.0,,,211.64,
2001-07-30 19:00,17.3,2.1,,,211.04,
2001-07-30 20:00,17.5,1.6,,,190.34,
2001-07-30 21:00,17.5,1.7,,,178.14,
2001-07-30 22:00,17.6,1.6,,,194.14,
2001-07-30 23:00,17.2,2.2,,,167.74,
2001-07-31 00:00,16.3,2.7,,,180.44,
2001-07-31 01:00,16.3,1.5,,,209.94,
2001-07-31 02:00,15.7,0.1,,,351.14,
2001-07-31 03:00,15.8,1.0,,,343.74,
2001-07-31 04:00,15.5,1.5,,,341.74,
2001-07-31 06:00,16.3,2.3,,,357.64,
2001-07-31 07:00,16.3,3.2,,,356.24,
2001-07-31 08:00,16.1,1.5,,,90.64,
2001-07-31 09:00,15.8,0.7,,,89.34,
2001-07-31 10:00,15.5,0.1,,,149.84,
2001-07-31 11:00,16.0,1.0,,,234.34,
2001-07-31 12:00,16.8,1.6,,,261.54,
2001-07-31 13:00,16.9,2.2,,,291.64,
2001-07-31 14:00,16.6,3.6,,,278.54,
2001-07-31 15:00,16.7,1.9,,,299.54,
2001-07-31 16:00,18.0,0.1,,,307.74,
2001-07-31 17:00,17.2,1.3,,,280.34,
2001-07-31 18:00,17.8,1.4,,,337.34,
2001-07-31 19:00,18.3,0.1,,,317.84,
2001-07-31 20:00,18.0,0.7,,,329.44,
2001-07-31 21:00,18.3,0.9,,,325.24,
2001-07-31 22:00,17.5,0.9,,,228.64,
2001-07-31 23:00,17.4,2.6,,,250.24,
2001-08-01 00:00,17.2,3.3,,,278.34,
2001-08-01 01:00,17.4,2.3,,,291.54,
2001-08-01 02:00,17.1,5.4,,,312.44,
2001-08-01 03:00,17.1,4.0,,,316.74,
2001-08-01 04:00,17.2,4.6,,,330.44,
2001-08-01 07:00,16.9,3.9,,,12.04,
2001-08-01 08:00,17.1,4.0,,,21.24,
2001-08-01 09:00,17.0,2.2,,,21.34,
2001-08-01 10:00,17.1,2.2,,,24.64,
2001-08-01 11:00,17.2,2.4,,,29.84,
2001-08-01 12:00,17.4,4.8,,,18.44,
2001-08-01 13:00,17.1,3.4,,,14.34,
2001-08-01 14:00,17.0,3.4,,,10.64,
2001-08-01 15:00,17.0,4.0,,,4.84,
2001-08-01 16:00,17.1,2.9,,,352.64,
2001-08-01 17:00,17.4,3.0,,,334.84,
2001-08-01 18:00,17.8,2.7,,,318.44,
2001-08-01 19:00,18.2,2.3,,,283.44,
2001-08-01 20:00,18.4,2.8,,,256.14,
2001-08-01 21:00,18.6,3.3,,,252.14,
2001-08-01 22:00,18.5,5.1,,,251.04,
2001-08-01 23:00,18.5,4.7,,,253.54,
2001-08-02 00:00,17.9,5.3,,,260.04,
2001-08-02 01:00,17.8,4.3,,,253.24,
2001-08-02 02:00,17.8,6.2,,,242.04,
2001-08-02 03:00,17.5,5.3,,,272.14,
2001-08-02 04:00,17.2,5.0,,,274.24,
2001-08-02 05:00,17.1,4.6,,,253.04,
2001-08-02 06:00,17.0,4.6,,,242.84,
2001-08-02 07:00,16.9,5.2,,,261.94,
2001-08-02 08:00,17.0,5.4,,,264.74,
2001-08-02 09:00,16.6,3.6,,,255.64,
2001-08-02 10:00,16.9,4.2,,,248.44,
2001-08-02 11:00,17.3,3.9,,,235.14,
2001-08-02 12:00,17.6,5.4,,,235.24,
2001-08-02 13:00,17.6,5.0,,,227.24,
2001-08-02 14:00,17.7,4.9,,,218.74,
2001-08-02 15:00,17.8,6.1,,,217.94,
2001-08-02 16:00,17.6,6.4,,,222.84,
2001-08-02 17:00,17.6,6.8,,,205.84,
2001-08-02 18:00,17.5,7.7,,,218.74,
2001-08-02 19:00,17.1,5.3,,,216.04,
2001-08-02 20:00,17.1,5.7,,,215.24,
2001-08-02 21:00,17.6,6.5,,,205.04,
2001-08-02 22:00,17.7,7.3,,,208.34,
2001-08-02 23:00,17.5,6.5,,,204.84,
2001-08-03 00:00,17.4,6.1,,,217.74,
2001-08-03 01:00,17.8,6.4,,,219.74,
2001-08-03 02:00,17.7,7.5,,,221.54,
2001-08-03 03:00,18.0,7.4,,,216.24,
2001-08-03 04:00,17.5,6.7,,,224.74,
2001-08-03 05:00,17.8,7.9,,,222.54,
2001-08-03 06:00,17.5,6.8,,,235.94,
2001-08-03 07:00,17.5,6.9,,,226.74,
2001-08-03 08:00,17.6,7.2,,,238.04,
2001-08-03 09:00,17.5,6.3,,,228.74,
2001-08-03 10:00,17.2,6.6,,,229.44,
2001-08-03 11:00,17.6,6.1,,,235.04,
2001-08-03 12:00,17.7,6.3,,,242.54,
2001-08-03 13:00,17.6,4.5,,,255.74,
2001-08-03 14:00,17.8,4.2,,,259.04,
2001-08-03 15:00,17.5,4.3,,,260.04,
2001-08-03 16:00,17.2,4.9,,,221.74,
2001-08-03 17:00,17.5,4.9,,,241.84,
2001-08-03 18:00,17.7,5.8,,,235.84,
2001-08-03 19:00,17.7,6.2,,,220.64,
2001-08-03 20:00,18.6,4.9,,,239.64,
2001-08-03 21:00,18.1,6.3,,,233.84,
2001-08-03 22:00,18.1,6.3,,,240.04,
2001-08-03 23:00,17.8,5.6,,,226.84,
2001-08-04 00:00,17.5,4.7,,,229.54,
2001-08-04 01:00,17.5,6.3,,,234.44,
2001-08-04 02:00,17.2,4.8,,,228.44,
2001-08-04 03:00,16.8,3.8,,,215.34,
2001-08-04 04:00,16.6,7.0,,,196.34,
2001-08-04 05:00,17.8,7.2,,,225.34,
2001-08-04 06:00,19.2,5.9,,,269.44,
2001-08-04 07:00,17.3,3.4,,,281.14,
2001-08-04 08:00,17.4,3.2,,,334.64,
2001-08-04 09:00,17.6,11.2,,,130.74,
2001-08-04 10:00,17.0,6.3,,,167.14,
2001-08-04 11:00,17.0,6.7,,,155.04,
2001-08-04 12:00,17.0,3.2,,,141.44,
2001-08-04 13:00,16.4,3.7,,,80.94,
2001-08-04 14:00,16.5,3.0,,,120.34,
2001-08-04 15:00,17.3,1.7,,,219.84,
2001-08-04 16:00,18.0,0.4,,,4.64,
2001-08-04 17:00,18.5,1.4,,,51.74,
2001-08-04 18:00,17.8,2.1,,,73.24,
2001-08-04 19:00,17.5,2.2,,,121.54,
2001-08-04 20:00,17.1,2.2,,,112.24,
2001-08-04 21:00,17.1,2.3,,,103.04,
2001-08-04 22:00,17.2,2.5,,,88.04,
2001-08-04 23:00,17.3,3.4,,,114.54,
2001-08-05 00:00,16.6,4.9,,,156.44,
2001-08-05 01:00,16.1,4.7,,,163.84,
2001-08-05 02:00,16.2,4.6,,,165.64,
2001-08-05 03:00,16.2,3.7,,,183.64,
2001-08-05 04:00,16.2,3.7,,,173.44,
2001-08-05 05:00,16.2,2.1,,,175.14,
2001-08-05 06:00,16.3,1.3,,,191.14,
2001-08-05 07:00,16.3,2.4,,,211.94,
2001-08-05 08:00,16.1,2.8,,,184.84,
2001-08-05 09:00,16.2,2.3,,,120.24,
2001-08-05 10:00,16.4,1.6,,,147.74,
2001-08-05 11:00,16.5,0.6,,,54.14,
2001-08-05 12:00,16.7,0.2,,,47.04,
2001-08-05 13:00,16.5,2.0,,,68.54,
2001-08-05 14:00,16.7,2.2,,,56.74,
2001-08-05 15:00,16.7,2.3,,,87.94,
2001-08-05 16:00,16.8,2.0,,,103.24,
2001-08-05 17:00,17.5,1.5,,,174.74,
2001-08-05 18:00,18.1,0.3,,,197.54,
2001-08-05 19:00,18.9,0.9,,,238.84,
2001-08-05 20:00,18.9,1.6,,,273.14,
2001-08-05 21:00,19.3,0.7,,,249.04,
2001-08-05 22:00,18.2,1.1,,,168.24,
2001-08-05 23:00,17.8,2.6,,,192.54,
2001-08-06 00:00,17.7,2.7,,,232.94,
2001-08-06 01:00,17.3,2.3,,,232.24,
2001-08-06 02:00,17.1,3.2,,,225.14,
2001-08-06 03:00,17.0,3.5,,,231.64,
2001-08-06 04:00,16.9,4.4,,,243.04,
2001-08-06 05:00,16.9,3.2,,,246.44,
2001-08-06 06:00,16.8,3.6,,,241.14,
2001-08-06 07:00,17.0,3.1,,,249.24,
2001-08-06 08:00,16.8,2.9,,,211.14,
2001-08-06 09:00,17.0,3.3,,,211.74,
2001-08-06 10:00,17.2,2.9,,,220.64,
2001-08-06 11:00,16.8,3.5,,,208.84,
2001-08-06 12:00,16.6,4.2,,,194.44,
2001-08-06 13:00,16.5,4.2,,,195.94,
2001-08-06 14:00,16.6,5.3,,,193.34,
2001-08-06 15:00,17.0,6.1,,,196.74,
2001-08-06 16:00,17.3,5.0,,,213.74,
2001-08-06 17:00,17.3,5.4,,,209.44,
2001-08-06 18:00,17.1,6.5,,,207.54,
2001-08-06 19:00,17.2,6.2,,,203.64,
2001-08-06 20:00,17.4,6.1,,,210.24,
2001-08-06 21:00,16.9,5.2,,,208.44,
2001-08-06 22:00,16.8,4.7,,,206.24,
2001-08-06 23:00,16.9,6.2,,,201.64,
2001-08-07 00:00,16.6,6.0,,,201.74,
2001-08-07 01:00,16.8,5.8,,,201.44,
2001-08-07 02:00,16.9,5.8,,,204.64,
2001-08-07 03:00,17.3,6.2,,,198.14,
2001-08-07 04:00,17.5,6.4,,,204.14,
2001-08-07 05:00,17.6,7.1,,,207.84,
2001-08-07 06:00,17.7,7.5,,,208.54,
2001-08-07 07:00,17.6,7.7,,,209.84,
2001-08-07 08:00,17.6,7.1,,,209.84,
2001-08-07 09:00,17.5,6.6,,,221.04,
2001-08-07 10:00,17.6,7.0,,,216.34,
2001-08-07 11:00,17.9,7.3,,,219.04,
2001-08-07 12:00,18.1,6.2,,,218.04,
2001-08-07 13:00,18.1,6.0,,,213.24,
2001-08-07 14:00,18.0,7.1,,,227.14,
2001-08-07 15:00,18.2,6.3,,,215.24,
2001-08-07 16:00,18.2,6.4,,,218.24,
2001-08-07 17:00,18.3,6.6,,,222.64,
2001-08-07 18:00,18.6,4.2,,,218.14,
2001-08-07 19:00,18.5,5.3,,,214.74,
2001-08-07 20:00,18.6,5.8,,,218.44,
2001-08-07 21:00,18.8,5.7,,,238.74,
2001-08-07 22:00,19.3,4.5,,,228.64,
2001-08-07 23:00,19.4,5.0,,,266.74,
2001-08-08 01:00,18.5,3.4,,,223.14,
2001-08-08 02:00,18.2,3.2,,,252.54,
2001-08-08 03:00,18.1,1.9,,,253.24,
2001-08-08 04:00,19.0,3.7,,,277.04,
2001-08-08 05:00,18.7,3.2,,,298.04,
2001-08-08 06:00,18.6,2.6,,,290.64,
2001-08-08 07:00,18.6,2.2,,,314.54,
2001-08-08 08:00,18.4,1.8,,,328.74,
2001-08-08 09:00,18.2,2.1,,,342.34,
2001-08-08 10:00,18.8,2.0,,,15.24,
2001-08-08 11:00,19.1,1.0,,,88.04,
2001-08-08 12:00,19.4,2.2,,,69.94,
2001-08-08 13:00,19.6,0.7,,,71.94,
2001-08-08 14:00,20.7,0.1,,,44.04,
2001-08-08 15:00,21.4,0.9,,,139.04,
2001-08-08 16:00,21.0,2.0,,,117.14,
2001-08-08 17:00,20.3,1.9,,,133.14,
2001-08-08 18:00,20.2,2.4,,,141.24,
2001-08-08 19:00,19.6,2.3,,,185.44,
2001-08-08 20:00,19.4,3.0,,,197.64,
2001-08-08 21:00,19.1,2.8,,,190.04,
2001-08-08 22:00,19.1,3.8,,,199.34,
2001-08-08 23:00,18.8,3.8,,,176.94,
2001-08-09 00:00,18.1,4.2,,,162.14,
2001-08-09 01:00,18.0,4.7,,,179.04,
2001-08-09 02:00,18.2,5.2,,,192.64,
2001-08-09 03:00,18.0,6.0,,,190.74,
2001-08-09 04:00,17.6,3.5,,,198.44,
2001-08-09 05:00,17.6,4.4,,,186.04,
2001-08-09 06:00,17.7,5.5,,,204.74,
2001-08-09 07:00,19.5,7.6,,,258.74,
2001-08-09 08:00,18.7,2.2,,,261.34,
2001-08-09 09:00,17.8,2.7,,,168.54,
2001-08-09 10:00,17.7,3.9,,,178.44,
2001-08-09 11:00,18.3,3.9,,,198.04,
2001-08-09 12:00,18.9,4.6,,,225.94,
2001-08-09 13:00,18.9,3.6,,,268.74,
2001-08-09 14:00,19.5,4.9,,,223.94,
2001-08-09 15:00,19.6,2.9,,,250.24,
2001-08-09 16:00,19.5,1.8,,,243.74,
2001-08-09 17:00,19.6,3.6,,,221.44,
2001-08-09 18:00,19.6,5.9,,,220.84,
2001-08-09 19:00,19.6,4.6,,,218.04,
2001-08-09 20:00,19.8,3.5,,,240.94,
2001-08-09 21:00,20.1,5.1,,,221.94,
2001-08-09 22:00,20.5,5.3,,,207.84,
2001-08-09 23:00,20.1,6.3,,,214.24,
2001-08-10 00:00,20.2,4.1,,,188.44,